EDT,Max TemperatureF,Mean TemperatureF,Min TemperatureF,Max Dew PointF,MeanDew PointF,Min DewpointF,Max Humidity, Mean Humidity, Min Humidity, Max Sea Level PressureIn, Mean Sea Level PressureIn, Min Sea Level PressureIn, Max VisibilityMiles, Mean VisibilityMiles, Min VisibilityMiles, Max Wind SpeedMPH, Mean Wind SpeedMPH, Max Gust SpeedMPH,PrecipitationIn, CloudCover, Events, WindDirDegrees
2012-3-1,39,37,35,30,30,28,81,75,70,29.85,29.82,29.72,10,10,10,16,10,21,0.00,8,,241
2012-3-2,46,38,33,45,34,30,93,83,75,29.63,29.46,29.17,10,7,4,13,10,,0.00,6,Rain,97
2012-3-3,32,31,30,27,24,21,86,76,64,29.73,29.68,29.62,10,7,1,21,19,26,0.00,8,Snow,258
2012-3-4,32,30,28,27,25,21,86,77,69,29.84,29.82,29.80,10,7,2,14,10,,0.00,8,Snow,260
2012-3-5,32,26,21,18,16,12,74,61,51,30.36,30.31,30.15,10,9,3,12,4,18,0.00,5,Snow,260
2012-3-6,64,48,33,34,31,23,65,39,32,30.22,30.06,29.99,10,10,10,18,14,32,0.00,1,,193
2012-3-7,66,60,53,45,39,30,52,42,31,30.08,29.99,29.94,10,10,10,28,19,41,0.00,7,,207
2012-3-8,48,44,35,46,31,21,93,71,45,30.17,30.04,29.87,10,8,4,17,13,26,0.00,5,Rain,296
2012-3-9,33,32,28,16,14,12,55,48,41,30.53,30.45,30.33,10,10,10,18,14,25,0.00,3,,316
2012-3-10,53,38,26,21,17,14,59,41,28,30.48,30.40,30.28,10,10,10,14,12,23,0.00,0,,180
2012-3-11,66,50,33,28,26,25,70,33,22,30.32,30.24,30.17,10,10,10,12,6,16,0.00,0,,194
2012-3-12,68,60,53,55,54,50,88,75,60,29.99,29.87,29.76,10,10,7,26,13,34,0.00,7,,197
2012-3-13,62,56,50,48,29,19,87,37,19,30.11,30.08,30.00,10,10,10,13,9,20,0.00,1,,298
2012-3-14,80,60,41,55,49,32,72,52,30,30.10,30.04,29.98,10,10,10,14,7,22,0.00,0,,196
2012-3-15,80,71,62,61,58,55,88,66,44,30.04,30.01,29.97,10,10,7,17,8,20,0.00,2,Thunderstorm,234
2012-3-16,75,65,55,57,56,54,100,68,53,30.09,30.07,30.06,10,8,3,8,2,,0.00,0,,173
2012-3-17,75,64,53,55,53,50,88,64,41,30.17,30.11,30.00,10,8,5,12,7,21,0.00,1,,184
2012-3-18,75,66,59,57,55,54,94,71,47,30.13,30.08,30.03,10,9,7,5,1,,0.00,4,,190
2012-3-19,80,68,55,63,58,54,94,68,45,30.07,30.03,29.99,10,10,10,9,4,,0.00,2,,172
2012-3-20,82,72,62,55,52,48,72,52,30,30.12,30.08,30.04,10,10,10,14,7,21,0.00,0,,161
2012-3-21,84,72,59,54,52,50,77,49,30,30.17,30.12,30.06,10,10,10,10,6,,0.00,2,,157
2012-3-22,80,70,60,55,54,50,82,54,34,30.14,30.10,30.04,10,10,10,12,3,,0.00,1,,174
2012-3-23,66,62,57,63,59,55,94,91,83,30.04,29.92,29.84,10,7,1,10,6,18,0.00,7,Rain,109
2012-3-24,62,58,55,55,55,54,100,88,72,29.85,29.83,29.80,10,5,1,8,3,,0.00,8,,303
2012-3-25,71,60,48,50,49,46,93,65,46,30.02,29.99,29.96,10,10,10,14,7,23,0.00,2,,338
2012-3-26,50,42,35,25,23,21,65,47,32,30.37,30.31,30.06,10,10,10,13,10,18,0.00,2,,59
2012-3-27,60,46,33,36,23,16,52,39,32,30.29,30.13,29.90,10,10,10,17,13,26,0.00,1,,150
2012-3-28,64,60,50,52,41,34,88,54,32,29.98,29.86,29.80,10,10,10,25,13,37,0.00,0,,284
2012-3-29,55,46,37,36,32,28,81,58,38,30.14,30.09,30.05,10,10,10,8,3,,0.00,0,,33
2012-3-30,44,42,39,41,39,36,87,85,81,29.87,29.79,29.73,10,6,4,14,10,18,0.00,7,,68
2012-3-31,48,42,37,37,34,32,81,73,66,29.99,29.97,29.94,10,10,7,10,8,,0.00,7,,87